EGYPTSAT 1

导读

EGYPTSAT 1(埃及卫星1号)是埃及首颗自主相关的遥感卫星,由乌克兰南方设计局研发,于北京时间2007年4月17日8时成功发射,国际卫星标识符为2007-012A。该卫星服务于埃及对地观测领域,可获取国土遥感数据,支撑资源调查、环境监测、地理测绘等工作,是埃及航天事业起步阶段的标志性成果,开启了埃及自主太空遥感应用的新篇章。

基本信息
目录编号:
31117
目录名称:
EGYPTSAT 1
国际标识:
2007-012A
轨道中心:
EARTH
卫星名称:
EGYPTSAT 1
卫星全名:
--
卫星状态:
在轨 (已飞行7042 天)
发射日期:
2007-04-17 UTC
国别 :
埃及 (EG)
星等 :
--
轨道信息
数据来源 国际轨道数据
星历时间: 2026-07-28T03:52:54+0800
13小时前
查看轨道信息
半长轴: 7008.005km
偏心率: 0.0004419
轨道倾角: 98.062°
近地点辐角 350.913°
升交点赤经 165.159°
平近点角 9.200°
近地点: 626.771km
远地点: 632.965km
周期: 97.309分钟
每日圈数: 14.798278
详细信息
使用方式:
暂无
2D轨道图
3D轨道图
轨道高度分析图
轨道倾角分析图
轨道综合分析图
查看轨道综合分析图